Tracking 29892 objects as of 21-Nov-2024
HD Live streaming from Space Station
objects crossing your sky now

FLOCK 4V 8

Track FLOCK 4V 8 now!
10-day predictions
FLOCK 4V 8 is classified as:


NORAD ID: 46288
Int'l Code: 2020-061S
Perigee: 151.1 km
Apogee: 168.8 km
Inclination: 97.3 °
Period: 87.5 minutes
Semi major axis: 6530 km
RCS: Unknown
Launch date: September 3, 2020
Source: United States (US)
Launch site: FRENCH GUIANA (FRGUI)
Your satellite tracking list
Your tracking list is empty




NASA's NSSDC Master Catalog

Two Line Element Set (TLE):
1 46288U 20061S   24325.46868202  .16600820  25145-5  41309-3 0  9994
2 46288  97.3109  43.6295 0013592 277.7629  82.2129 16.44892635234188
Source of the keplerian elements: AFSPC